Lapse_Rate
5.6 5.4 5.4 5.5 6.0 6.0 5.9 5.9 5.9 5.9 6.0 6.1 6.2 6.4 6.3 6.0 6.0 6.1 5.8 5.5 5.3 5.4
5.5 5.5 5.6 5.7 5.9 5.9 6.3 6.2 6.1 6.1 6.1 6.1 6.2 6.1 6.3 6.3 6.1 6.1 5.7 5.5 5.2 5.0
5.5 5.7 5.9 6.0 5.9 5.8 6.1 6.0 5.9 6.1 6.1 6.0 6.2 6.1 6.2 6.4 6.4 6.0 5.4 5.2 5.0 5.0
5.6 6.0 6.1 6.0 6.0 6.0 5.9 5.8 5.7 5.8 6.1 6.1 6.1 6.4 6.4 6.6 6.2 5.9 5.2 5.1 5.0 5.0
5.9 6.3 6.2 6.1 5.9 5.7 5.6 5.8 6.1 6.1 6.1 6.2 6.3 6.5 6.7 6.6 6.4 5.9 5.6 5.2 5.2 5.1
5.9 6.4 6.2 5.6 5.6 5.6 5.9 5.6 5.6 5.4 5.4 5.5 6.1 6.3 6.3 6.2 6.3 5.7 5.3 5.3 5.5 5.3
6.1 6.3 6.0 5.4 5.2 5.6 5.6 5.4 5.5 5.5 5.7 5.5 5.5 5.5 5.7 5.8 5.9 6.0 5.4 5.1 5.0 4.9
5.9 6.1 5.8 5.3 5.1 5.2 5.3 5.3 5.6 5.8 5.8 5.6 5.6 5.8 5.9 5.8 5.5 5.1 5.0 5.0 4.8 5.0
5.7 5.9 5.8 5.4 5.1 5.3 5.2 5.3 5.6 5.9 5.9 5.8 5.6 5.7 5.6 5.3 5.1 5.0 4.9 4.8 4.8 4.9
5.7 5.8 5.8 5.6 5.0 4.9 5.2 5.4 5.5 5.5 5.4 5.3 5.4 5.4 5.2 5.2 5.3 5.2 5.1 5.1 4.9 5.0
5.7 5.7 5.7 5.5 5.3 5.0 5.1 5.3 5.1 5.3 5.1 5.1 5.3 5.3 5.4 5.1 5.4 5.3 5.3 5.1 4.9 4.9
5.6 5.6 5.6 5.7 5.6 5.3 5.4 5.1 5.0 5.2 5.0 5.0 5.2 5.4 5.5 5.4 5.4 5.2 5.1 5.0 4.9 5.0
5.6 5.6 5.7 5.9 5.9 5.8 5.7 5.6 5.6 5.7 5.7 5.8 5.7 5.7 5.5 5.3 5.3 5.2 5.2 5.3 5.1 5.0
5.6 5.7 5.9 6.0 5.9 5.9 5.9 5.8 5.8 5.7 5.7 5.6 5.4 5.6 5.5 5.4 5.2 5.1 5.1 5.2 5.4 5.4
Wind_Speed
5 4 4 5 5 4 4 5 6 5 8 10 10 8 8 8 8 10 9 11 8 5
3 4 3 3 3 2 3 4 7 8 6 6 9 10 9 7 9 10 10 11 10 5
5 4 3 2 2 2 3 5 6 7 8 8 7 8 9 7 9 10 9 7 11 8
3 3 3 2 1 1 2 4 6 8 8 7 8 9 7 7 8 8 7 8 12 11
4 3 3 3 2 1 2 1 3 5 5 6 8 7 7 8 8 10 10 10 11 11
5 4 4 4 2 2 1 1 1 2 5 5 5 5 5 8 9 9 10 11 10 10
5 4 4 4 3 4 4 4 4 5 6 7 8 9 9 10 11 10 9 9 8 7
5 5 6 5 5 6 6 6 5 7 8 8 8 7 10 10 11 11 9 8 8 8
7 7 8 6 6 6 8 7 7 7 9 9 6 18 18 13 9 10 10 10 9 10
8 9 8 7 8 7 9 9 10 10 10 11 10 19 20 20 10 11 11 11 10 9
10 9 9 10 9 8 8 9 9 9 10 11 11 21 22 22 13 11 11 10 10 11
10 10 10 11 10 8 9 8 9 9 12 12 11 21 23 18 13 13 13 11 11 11
11 11 11 11 10 9 10 9 9 12 13 16 14 18 18 15 11 13 10 11 11 14
12 11 12 11 10 10 10 11 12 13 12 13 13 13 15 14 10 9 9 8 8 8
Wind_Direction
140 163 161 156 149 151 171 192 210 223 226 221 222 216 190 191 196 184 184 180 174 166
137 153 155 126 138 177 198 215 201 192 192 215 227 221 219 186 182 189 189 189 173 170
162 148 130 107 130 210 221 220 231 218 203 202 203 203 197 192 189 192 190 180 175 142
135 108 95 89 65 296 241 235 238 229 212 213 225 196 191 179 180 172 152 157 161 154
119 127 115 104 90 350 322 320 266 240 220 208 216 205 180 165 154 145 145 136 135 133
122 123 110 95 70 81 26 20 331 222 209 183 160 139 133 131 128 131 128 129 127 132
124 115 104 101 58 61 64 53 52 67 88 107 108 105 108 115 116 115 116 122 123 123
115 110 95 81 70 72 57 60 75 85 85 89 96 108 109 107 110 109 102 96 101 102
121 116 100 97 86 75 65 55 74 75 79 79 90 104 103 101 102 104 108 100 88 94
121 115 109 106 93 75 75 75 71 73 85 85 92 107 106 102 95 94 91 93 95 93
124 117 116 106 95 82 76 79 87 84 87 94 99 105 104 96 89 85 87 94 106 118
132 125 116 106 103 96 91 83 83 92 95 90 97 107 107 102 100 103 104 102 99 104
134 126 118 114 107 99 96 98 101 96 91 97 101 102 109 113 112 109 107 102 90 70
132 131 124 119 118 115 113 109 103 100 97 98 99 99 101 105 112 112 107 99 88 81